sat.trackr.live / text

‹ back to catalog

CAPELLA-16 (ACADIA-6)

NORAD 65318 · 2025-188D

PAYLOAD ACTIVE UNKNOWN

§ Identity

Operator
Country
US
Launch date
2025-08-26
Launch site
AFWTR
Launch vehicle
Mass (kg)
RCS (m²)

External: N2YO · Heavens-Above · Gunter

§ Orbital elements

Epoch: 2026-09-20T04:19:51.106368Z

Period
96.34 min
Inclination
97.7315°
Eccentricity
0.0002700
Mean motion
14.94664250 rev/d
Perigee alt
581.5 km
Apogee alt
585.3 km
Semi-major
6,961.6 km
B*
2.6988e-4
RAAN
336.9225°
Arg perigee
282.8905°
Mean anomaly
77.2013°
Rev number
5,810

§ Raw data

CAPELLA-16 (ACADIA-6)1 65318U 25188D   26263.18045262  .00002869  00000+0  26988-3 0  99942 65318  97.7315 336.9225 0002700 282.8905  77.2013 14.94664250 58105

JSON: /api/v1/satellites/65318 · /tle

For live sub-satellite position, see the globe view (requires WebGL).

§ Visibility from observer

Set your observer location to see the next 7 days of passes ≥ 10°. The values pass through the URL so the page stays shareable.

No JS? Fill the form by hand. The geolocation button needs JavaScript.